#timestamp,LO_Frequency,Hit,StdDev 
1604523615.4,286047003.9,N
1604523635.2,286047001.4,N
1604523655.1,286047001.1,N
1604523656.0,286047001.1,N
1604523675.8,286046999.1,N
1604523695.6,286046998.4,N
1604523715.5,286046997.7,N
1604523735.3,286046995.4,N
1604523755.2,286046998.4,N
1604523775.9,286046993.3,N
1604523795.7,286046993.4,N
1604523815.6,286046997.1,N
1604523835.4,286046996.1,N
1604523855.3,286046993.4,N
1604523875.1,286046997.2,N
1604523876.0,286046997.2,N
1604523895.8,286046997.6,N
1604523915.7,286046996.9,N
1604523935.5,286046996.6,N
1604523955.3,286047000.3,N
1604523975.2,286046995.8,N
1604523995.0,286046995.1,N
1604523995.9,286046995.1,N
1604524015.8,286046995.2,N
1604524035.6,286047000.1,N
1604524055.4,286047000.0,N
1604524075.3,286047000.1,N
1604524095.1,286047002.6,N
1604524115.8,286047001.0,N
1604524165.7,286047000.0,E
1604524175.6,286046999.3,N
1604524195.5,286047000.5,P
1604524215.3,286047001.0,N
1604524235.1,286046999.5,N
1604524255.9,286046997.2,Y
1604524275.7,286046998.3,P
1604524295.6,286047000.6,N
1604524315.4,286046996.9,P
1604524335.2,286046999.6,N
1604524355.1,286046999.5,N
1604524356.0,286046999.5,N
1604524375.8,286047000.9,N
1604524395.6,286047002.8,N
1604524415.5,286047002.7,N
1604524435.3,286047002.0,N
1604524455.2,286047001.7,N
1604524475.9,286047001.1,N
1604524495.7,286047000.1,N
1604524515.6,286046998.3,N
1604524535.4,286046998.2,N
1604524555.2,286046998.3,N
1604524575.1,286047002.2,N
1604524576.0,286047002.2,N
1604524595.8,286047001.4,N
1604524615.7,286046998.3,N
1604524635.5,286046996.9,N
1604524655.3,286046993.5,Y
1604524675.2,286046997.6,P
1604524695.0,286046996.5,N
1604524695.9,286046996.5,N
1604524715.8,286046998.6,N
1604524735.6,286046996.2,N
1604524755.4,286046993.6,Y
1604524775.3,286046997.4,P
1604524795.1,286047001.1,P
1604524815.8,286047000.5,N
1604524835.7,286047000.9,N
1604524855.5,286047002.1,N
1604524875.4,286047002.4,N
1604524895.2,286047003.5,N
1604524915.0,286047003.3,N
1604524915.9,286047003.3,N
1604524935.8,286047006.5,Y
1604524955.6,286047005.9,P
1604524975.5,286047004.8,N
1604524995.3,286047004.0,N
1604525015.1,286047007.6,Y
1604525035.9,286047002.4,P
1604525055.7,286047002.8,P
1604525075.5,286046996.5,P
1604525095.4,286046997.2,N
1604525115.2,286046997.6,N
1604525135.1,286046997.1,N
1604525136.0,286046997.1,N
1604525155.8,286046995.1,N
1604525175.6,286046994.1,N
1604525195.5,286046991.9,N
1604525215.3,286046994.7,N
1604525235.1,286046997.9,N
1604525255.9,286046997.6,N
1604525275.7,286046994.1,N
1604525295.6,286046993.8,N
1604525315.4,286046994.6,N
1604525335.2,286046993.8,N
1604525355.1,286046995.2,N
1604525356.0,286046995.2,N
1604525375.8,286046995.0,N
1604525395.6,286046995.3,N
1604525415.5,286046999.4,N
1604525435.3,286046999.2,N
1604525455.2,286046997.6,N
1604525475.9,286046996.5,N
1604525495.7,286046996.6,N
1604525515.6,286046995.5,N
1604525535.4,286046997.9,N
1604525555.2,286046996.5,N
1604525575.1,286046995.3,N
1604525576.0,286046995.3,N
1604525595.8,286046996.0,N
1604525615.7,286046992.8,Y
1604525635.5,286046999.6,P
1604525655.4,286047000.0,N
1604525675.2,286047000.4,N
1604525695.0,286047002.5,N
1604525695.9,286047002.5,N
1604525715.8,286047003.8,N
1604525735.6,286047003.9,N
1604525755.4,286047003.2,N
1604525775.3,286047004.4,N
1604525795.1,286047002.8,N
1604525815.9,286046998.9,N
1604525835.7,286047001.8,N
1604525855.5,286047002.2,N
1604525875.4,286047000.3,N
1604525895.2,286047001.2,N
1604525915.0,286047000.0,N
1604525915.9,286047000.0,N
1604525935.8,286047000.3,N
1604525955.6,286047001.2,N
1604525975.5,286046996.9,N
1604525995.3,286046998.6,N
1604526015.1,286047002.4,N
1604526035.9,286047002.0,N
1604526055.7,286047002.4,N
1604526075.5,286047000.8,N
1604526095.4,286046999.1,N
1604526115.2,286046998.7,N
1604526135.1,286047000.0,N
1604526136.0,286047000.0,N
1604526155.8,286047000.5,N
1604526175.6,286047000.6,N
1604526195.5,286046999.2,N
1604526215.3,286047002.8,N
1604526235.1,286046997.2,N
1604526255.9,286046994.9,N
1604526275.7,286046999.5,N
1604526295.6,286047000.1,N
1604526315.4,286047004.4,N
1604526335.2,286047004.1,N
1604526355.1,286047000.7,N
1604526356.0,286047000.7,N
1604526375.8,286047002.4,N
1604526395.6,286047004.0,N
1604526415.5,286047000.0,N
1604526435.3,286047004.0,N
1604526455.2,286047001.6,N
1604526475.9,286047004.2,N
1604526495.7,286047004.0,N
1604526515.6,286047004.5,N
1604526535.4,286047003.4,N
1604526555.2,286047002.0,N
1604526575.1,286046996.8,N
1604526576.0,286046996.8,N
1604526595.8,286046995.1,N
1604526615.7,286046997.1,N
1604526635.5,286047000.8,N
1604526655.3,286047002.5,N
1604526675.2,286046999.2,N
1604526695.0,286047000.5,N
1604526695.9,286047000.5,N
1604526715.8,286046999.5,N
1604526735.6,286046997.8,N
1604526755.4,286046999.4,N
1604526775.3,286046997.5,N
1604526795.1,286046999.2,N
1604526815.8,286046996.8,N
1604526835.7,286047000.7,N
1604526855.5,286046996.7,N
1604526875.3,286047000.1,N
1604526895.2,286046999.8,N
1604526915.0,286047001.4,N
1604526915.9,286047001.4,N
1604526935.8,286047003.4,N
1604526955.6,286047000.0,N
1604526975.4,286046998.2,N
1604526995.3,286046998.3,N
1604527015.1,286046999.0,N
1604527035.9,286046995.0,N
1604527055.7,286047000.0,N
1604527075.5,286047000.3,N
1604527095.4,286046998.9,N
1604527115.2,286046995.1,N
1604527135.0,286046998.6,N
1604527135.9,286046998.6,N
1604527155.8,286047002.1,N
1604527175.6,286047001.1,N
1604527195.5,286046996.5,N
